Weather in Strugova Buda

Russia / Bryansk Oblast     53°02′08″N   32°01′11″E
temp.,
°C
wind,
m/s
gust,
m/s
humid.,
%
clouds,
%
prec.,
mm/h
press.,
hPa
HPBL,
m
7 july, thu
thu700:00+19w2385100 0.2 101183
03:00+18wsw479882 0.8 1012383
06:00+16w579579 1.6 1012477
09:00+16wnw5786100 1.6 1014624
12:00+17nw5676100 0.0 1015811
15:00+18nnw457468 0.0 1016871
18:00+19nw4566100 0.0 10161116
21:00+16nw228398 0.0 101714
8 july, fri
fri800:00+15n228593 0.0 101828
03:00+13n229098 0.0 101811
06:00+14n239054 0.0 101879
09:00+19nne2369100 0.0 1019545
12:00+22nnw3352100 0.0 10181464
15:00+22nnw3249100 0.0 10181613
18:00+21nne236272 0.0 1017170
21:00+19n2264100 0.0 101722
9 july, sat
sat900:00+15nne11822 0.0 101711
03:00+14nnw228383 0.0 101615
06:00+14nne228452 0.0 101634
09:00+20nne2264100 0.0 1016368
12:00+23nnw2248100 0.0 10141467
15:00+24wnw2145100 0.0 10131667
18:00+23nw3355100 0.0 1011914
21:00+18wnw336981 0.0 101123
10 july, sun
sun1000:00+15nne3380100 0.0 101135
03:00+14ene2284100 0.0 101011
06:00+16ne2380100 0.0 100948
09:00+17nne1281100 0.1 100947
12:00+17nne3591100 1.4 1009223
15:00+22n3262100 1.4 10081010
18:00+21nw5664100 0.0 1007949
21:00+17nnw3587100 0.0 1009119
11 july, mon
mon1100:00+15nw4895100 0.2 1008197
03:00+14nw489796 0.2 1008221
06:00+14nw4894100 0.0 1007240
09:00+14nw5997100 2.2 1006322
12:00+14wnw61197100 4.5 1005467
15:00+15wnw61194100 8.2 1005581
18:00+15w51095100 2.8 1005434
21:00+15w41194100 3.3 1006400